Tracking 25710 objects as of 5-Jul-2022
HD Live streaming from Space Station
objects crossing your sky now

FENGYUN 1C DEB

Track FENGYUN 1C DEB now!
10-day predictions


NORAD ID: 30661
Int'l Code: 1999-025APT
Perigee: 728.2 km
Apogee: 940.1 km
Inclination: 99.4 °
Period: 101.4 minutes
Semi major axis: 7205 km
RCS: 0.0103 m2 (small)
Launch date: May 10, 1999
Source: People's Republic of China (PRC)
Launch site: Taiyaun Space Center, China (TSC)

Note: This is SATELLITE DEBRIS
aabbcc
Your satellite tracking list
Your tracking list is empty




NASA's NSSDC Master Catalog

Two Line Element Set (TLE):
1 30661U 99025APT 22185.72647005  .00000061  00000-0  47302-4 0  9997
2 30661  99.4062 262.8669 0147057 350.4777   9.3616 14.19510886800594
Source of the keplerian elements: AFSPC